Weather History for KABQ - November, 2013

Change the Weather History Date:

Friday, November 15, 2013

  Actual Average Record
Temperature  
Mean Temperature 49 °F 45 °F  
Max Temperature 61 °F 56 °F 73 °F (1903)
Min Temperature 36 °F 34 °F 10 °F (1915)
Degree Days  
Heating Degree Days 16 20  
Month to date heating degree days 234 254  
Since 1 July heating degree days 531 520  
Cooling Degree Days 0 0  
Month to date cooling degree days 0 0  
Year to date cooling degree days 1565 1322  
Moisture  
Dew Point 35 °F    
Average Humidity 54    
Maximum Humidity 71    
Minimum Humidity 36    
Precipitation  
Precipitation 0.20 in 0.02 in 1.41 in (1991)
Month to date precipitation 0.34 0.30  
Year to date precipitation 8.36 8.68  
Snow  
Snow 0.00 in - - ()
Month to date snowfall 0.0  
Since 1 July snowfall 0.0  
Since 1 September snowfall 0.0  
Snow Depth 0.00 in    
Sea Level Pressure  
Sea Level Pressure 29.79 in    
Wind  
Wind Speed 10 mph (South)    
Max Wind Speed 31 mph    
Max Gust Speed 38 mph    
Visibility 9 miles    
Events Rain , Thunderstorm    
T = Trace of Precipitation, MM = Missing Value Source: NWS Daily Summary

Daily Weather History Graph

Daily Weather History Graph

Search for Another Location

Airport or City:

Trip Planner

Search our weather history database for the weather conditions in past years. The results will help you decide how hot, cold, wet, or windy it might be!

Date:

Astronomy

Nov. 15, 2013 Rise Set
Actual Time 6:41 AM MST 5:00 PM MST
Civil Twilight 6:14 AM MST 5:27 PM MST
Nautical Twilight 5:43 AM MST 5:58 PM MST
Astronomical Twilight 5:13 AM MST 6:28 PM MST
Moon 3:56 PM MST (11/15) 4:44 AM MST (11/15)
Length of Visible Light 11h 13m
Length of Day
10h 19m
Waxing Gibbous, 97% of the Moon is Illuminated
Nov 15
Waxing Gibbous
Nov 17
Full
Nov 25
Last Quarter
Dec 2
New
Dec 9
First Quarter

Hourly Weather History & Observations

Time (MST) Temp. Windchill Dew Point Humidity Pressure Visibility Wind Dir Wind Speed Gust Speed Precip Events Conditions
12:52 AM 39.9 °F - 28.0 °F 63% 29.90 in 10.0 mi Calm Calm - N/A   Clear
1:52 AM 39.9 °F 37.8 °F 28.0 °F 63% 29.88 in 10.0 mi SE 3.5 mph - N/A   Partly Cloudy
2:52 AM 39.9 °F 37.8 °F 27.0 °F 60% 29.87 in 10.0 mi Variable 3.5 mph - N/A   Scattered Clouds
3:52 AM 37.9 °F 34.4 °F 28.0 °F 68% 29.87 in 10.0 mi NNE 4.6 mph - N/A   Mostly Cloudy
4:52 AM 39.0 °F - 27.0 °F 62% 29.86 in 10.0 mi Calm Calm - N/A   Mostly Cloudy
5:52 AM 37.0 °F 34.5 °F 27.0 °F 67% 29.88 in 10.0 mi SSE 3.5 mph - N/A   Mostly Cloudy
6:52 AM 37.0 °F 32.4 °F 28.0 °F 70% 29.88 in 10.0 mi SSE 5.8 mph - N/A   Mostly Cloudy
7:52 AM 39.0 °F - 27.0 °F 62% 29.91 in 10.0 mi Calm Calm - N/A   Mostly Cloudy
8:52 AM 42.1 °F 40.2 °F 28.0 °F 58% 29.92 in 10.0 mi South 3.5 mph - N/A   Overcast
9:52 AM 46.0 °F 41.4 °F 28.9 °F 51% 29.89 in 10.0 mi South 9.2 mph - N/A   Mostly Cloudy
10:52 AM 48.9 °F - 30.0 °F 48% 29.86 in 10.0 mi South 6.9 mph - N/A   Mostly Cloudy
11:52 AM 50.0 °F - 30.9 °F 48% 29.82 in 10.0 mi South 12.7 mph - N/A   Mostly Cloudy
12:52 PM 54.0 °F - 30.9 °F 41% 29.75 in 10.0 mi South 11.5 mph - N/A   Mostly Cloudy
1:52 PM 59.0 °F - 32.0 °F 36% 29.68 in 10.0 mi SW 10.4 mph 18.4 mph N/A   Mostly Cloudy
2:52 PM 60.1 °F - 34.0 °F 38% 29.65 in 10.0 mi South 24.2 mph 29.9 mph N/A   Mostly Cloudy
3:52 PM 57.0 °F - 39.9 °F 53% 29.65 in 10.0 mi South 27.6 mph 35.7 mph N/A   Scattered Clouds
4:52 PM 55.0 °F - 37.9 °F 53% 29.65 in 10.0 mi South 21.9 mph 28.8 mph N/A   Mostly Cloudy
5:52 PM 53.1 °F - 39.0 °F 59% 29.69 in 10.0 mi South 24.2 mph 29.9 mph N/A   Mostly Cloudy
6:52 PM 51.1 °F - 42.1 °F 71% 29.70 in 10.0 mi South 20.7 mph - N/A   Mostly Cloudy
7:52 PM 52.0 °F - 42.1 °F 69% 29.70 in 10.0 mi SSW 16.1 mph - N/A   Mostly Cloudy
8:52 PM 50.0 °F - 44.1 °F 80% 29.72 in 10.0 mi SSW 5.8 mph - 0.01 in Rain Light Rain
9:52 PM 50.0 °F - 44.1 °F 80% 29.71 in 6.0 mi West 9.2 mph - 0.03 in Rain Rain
10:15 PM 48.2 °F - 42.8 °F 82% 29.80 in 6.0 mi West 10.4 mph 18.4 mph 0.03 in Rain , Thunderstorm Thunderstorms and Rain
10:37 PM 46.4 °F 40.7 °F 44.6 °F 93% 29.80 in 4.0 mi SSW 12.7 mph - 0.14 in Rain , Thunderstorm Thunderstorms and Rain
10:42 PM 46.4 °F 41.5 °F 44.6 °F 93% 29.80 in 6.0 mi SSW 10.4 mph - 0.15 in Rain , Thunderstorm Light Thunderstorms and Rain
10:52 PM 46.9 °F - 44.1 °F 90% 29.70 in 9.0 mi SSW 6.9 mph - 0.16 in Rain , Thunderstorm Light Thunderstorms and Rain
11:02 PM 48.2 °F - 44.6 °F 87% 29.79 in 10.0 mi SW 6.9 mph - 0.00 in   Overcast
11:52 PM 46.0 °F 41.9 °F 44.1 °F 93% 29.71 in 10.0 mi East 8.1 mph - 0.00 in   Overcast